Location: Unspecified
(48.2082°N, 0.0000°E)
Time: 14:50:05
(UTC+00:00)

Altair - Pass Details

Date: 27 June 2019
Orbit: 1501 x 1683 km, 47.2° (Epoch: 20 July)

Event Time Altitude Azimuth Distance (km) Brightness Sun altitude
Rises 22:32:07 0° 281° (W) 4,761 10.5 -15.6°
Reaches altitude 10° 22:35:09 10° 280° (W) 3,800 10.0 -15.8°
Maximum altitude 22:44:50 76° 197° (SSW) 1,680 7.5 -16.4°
Drops below altitude 10° 22:54:52 10° 114° (ESE) 3,922 9.3 -16.9°
Sets 22:58:03 0° 113° (ESE) 4,920 9.8 -17.0°
